Location: Krasnoyarskiy Pitomnik
(51.1333°N, 71.6167°E)
Time: 04:49:16
(UTC+00:00)

Transit 4A - Pass Details

Date: 17 April 2024
Orbit: 871 x 971 km, 66.8° (Epoch: 28 May)

Event Time Altitude Azimuth Distance (km) Brightness Sun altitude
Rises 16:38:09 0° 322° (NW) 3,474 12.6 -19.6°
Reaches altitude 10° 16:40:39 10° 324° (NW) 2,530 11.4 -19.8°
Maximum altitude 16:46:30 78° 51° (NE) 899 7.8 -20.4°
Enters shadow 16:48:44 40° 130° (SE) 1,277 8.1 -20.6°
